Temp
-13 -12 -12 -12 -12 -12 -12 -12 -11 -12 -11 -12 -11 -10 -10 -10 -10 -10 -10 -11 -11 -11 -12 -12 -12 -12 -11 -12 -13 -13 -13 -13 -13 -13 -13 -13 -13 -13 -14 -14 -14 -14 -14 -13
-13 -13 -13 -13 -13 -13 -13 -12 -12 -12 -12 -11 -11 -10 -10 -11 -11 -11 -11 -11 -12 -11 -12 -13 -12 -11 -11 -12 -13 -14 -14 -14 -13 -13 -13 -13 -13 -14 -14 -14 -14 -14 -14 -13
-14 -13 -13 -13 -13 -13 -13 -13 -12 -12 -12 -12 -11 -10 -10 -11 -11 -12 -12 -12 -12 -11 -12 -12 -12 -12 -12 -13 -14 -14 -14 -14 -14 -14 -14 -15 -14 -14 -14 -15 -15 -14 -14 -14
-14 -14 -13 -13 -13 -13 -13 -13 -13 -13 -13 -12 -12 -10 -10 -11 -11 -13 -13 -13 -12 -12 -12 -12 -13 -14 -14 -14 -15 -15 -15 -15 -15 -14 -14 -15 -15 -15 -15 -15 -15 -15 -15 -14
-15 -14 -14 -14 -14 -14 -13 -14 -14 -13 -13 -13 -12 -12 -10 -11 -12 -13 -14 -14 -13 -13 -13 -14 -14 -15 -15 -15 -15 -15 -15 -15 -15 -15 -15 -15 -16 -15 -15 -15 -15 -15 -15 -15
-15 -15 -15 -14 -14 -14 -14 -14 -14 -14 -15 -13 -13 -13 -11 -12 -13 -13 -14 -14 -13 -14 -15 -15 -16 -16 -16 -16 -16 -16 -16 -16 -16 -16 -15 -15 -16 -16 -15 -15 -15 -16 -16 -16
-16 -16 -16 -15 -15 -15 -15 -15 -15 -16 -15 -14 -14 -14 -12 -12 -13 -14 -14 -14 -15 -15 -16 -16 -16 -16 -17 -16 -16 -16 -16 -16 -16 -16 -16 -16 -16 -16 -16 -16 -15 -16 -16 -16
-16 -15 -16 -15 -16 -16 -16 -16 -16 -16 -16 -15 -15 -13 -12 -13 -14 -14 -14 -15 -16 -17 -17 -17 -17 -17 -17 -17 -17 -17 -17 -17 -17 -17 -17 -17 -17 -16 -16 -16 -16 -16 -16 -16
-17 -17 -16 -16 -17 -17 -17 -16 -18 -18 -17 -17 -15 -14 -14 -14 -15 -15 -15 -16 -17 -18 -18 -18 -18 -18 -18 -18 -18 -17 -18 -17 -17 -17 -17 -17 -17 -17 -17 -17 -17 -17 -17 -17
-18 -18 -17 -17 -16 -17 -17 -17 -18 -18 -18 -18 -16 -15 -15 -16 -16 -17 -17 -17 -18 -18 -19 -18 -18 -18 -18 -17 -17 -17 -17 -17 -17 -17 -17 -17 -18 -18 -17 -17 -17 -17 -17 -17
-19 -19 -18 -18 -17 -17 -18 -18 -18 -19 -19 -20 -19 -16 -16 -17 -18 -18 -18 -18 -18 -19 -19 -19 -19 -18 -18 -18 -18 -18 -18 -18 -19 -19 -18 -18 -18 -18 -18 -18 -18 -18 -18 -18
-20 -21 -20 -19 -18 -18 -18 -18 -19 -19 -20 -20 -20 -16 -18 -19 -19 -19 -19 -19 -19 -18 -19 -20 -19 -19 -19 -19 -19 -19 -20 -20 -20 -19 -19 -19 -19 -19 -19 -19 -19 -18 -18 -18
-21 -21 -20 -19 -18 -18 -17 -17 -19 -20 -21 -19 -21 -17 -19 -20 -20 -20 -20 -20 -19 -20 -19 -19 -20 -20 -20 -20 -20 -20 -20 -20 -20 -20 -20 -20 -20 -20 -20 -19 -19 -19 -19 -19
-21 -21 -20 -19 -19 -19 -19 -19 -20 -21 -21 -20 -21 -20 -20 -21 -21 -20 -20 -20 -20 -20 -20 -20 -20 -20 -21 -20 -20 -20 -19 -20 -20 -20 -20 -20 -20 -20 -20 -20 -20 -20 -19 -19
-22 -22 -21 -19 -20 -20 -20 -20 -21 -20 -20 -21 -20 -21 -21 -21 -21 -21 -20 -20 -20 -20 -20 -20 -20 -20 -20 -20 -20 -20 -20 -20 -20 -20 -20 -21 -21 -21 -21 -21 -20 -20 -20 -20
-23 -21 -23 -22 -21 -22 -22 -22 -19 -21 -20 -21 -21 -21 -21 -21 -21 -21 -21 -20 -21 -21 -21 -20 -20 -20 -20 -20 -21 -21 -20 -20 -20 -20 -21 -21 -21 -21 -21 -20 -20 -20 -19 -19
-24 -24 -24 -23 -23 -23 -23 -19 -21 -21 -21 -21 -21 -21 -22 -22 -21 -21 -21 -21 -21 -20 -21 -21 -21 -21 -21 -20 -21 -21 -21 -21 -20 -21 -21 -21 -21 -21 -21 -20 -20 -20 -20 -20
-24 -24 -24 -23 -23 -23 -21 -21 -21 -21 -21 -22 -22 -21 -22 -22 -21 -21 -21 -21 -21 -21 -21 -21 -21 -21 -21 -21 -21 -21 -21 -21 -21 -22 -22 -21 -21 -21 -21 -21 -21 -21 -21 -21
-25 -25 -24 -24 -23 -23 -22 -21 -22 -22 -21 -22 -22 -22 -22 -22 -22 -21 -21 -21 -21 -21 -21 -21 -21 -21 -21 -21 -22 -22 -22 -22 -22 -22 -22 -22 -22 -22 -21 -21 -21 -22 -22 -22
-26 -25 -25 -24 -24 -23 -21 -22 -22 -22 -22 -21 -22 -21 -22 -22 -21 -21 -22 -21 -21 -21 -22 -22 -22 -22 -22 -22 -22 -22 -22 -22 -23 -23 -23 -22 -22 -22 -22 -22 -21 -22 -22 -22
-25 -25 -25 -25 -24 -24 -23 -21 -22 -22 -21 -21 -22 -22 -22 -22 -21 -22 -21 -21 -22 -22 -22 -22 -23 -23 -23 -23 -23 -23 -23 -23 -23 -23 -23 -23 -23 -22 -22 -22 -22 -22 -22 -22
-25 -25 -24 -23 -24 -24 -22 -22 -22 -21 -22 -22 -22 -22 -22 -22 -22 -22 -22 -22 -22 -23 -23 -23 -23 -23 -23 -23 -23 -23 -24 -23 -24 -24 -23 -23 -23 -23 -23 -22 -22 -22 -22 -22
-25 -24 -24 -24 -23 -22 -22 -22 -22 -22 -22 -22 -22 -22 -22 -22 -22 -22 -22 -22 -23 -23 -23 -23 -23 -23 -23 -24 -24 -24 -24 -24 -24 -24 -24 -24 -24 -24 -24 -24 -24 -24 -24 -24
-24 -23 -23 -22 -22 -23 -22 -23 -22 -22 -22 -22 -22 -22 -22 -22 -22 -22 -23 -23 -23 -23 -23 -24 -24 -24 -24 -24 -24 -24 -24 -24 -25 -25 -25 -25 -25 -26 -26 -26 -26 -26 -26 -26
-24 -24 -23 -23 -23 -22 -22 -23 -23 -22 -23 -23 -22 -22 -22 -22 -23 -23 -23 -23 -24 -24 -24 -24 -24 -24 -24 -25 -25 -25 -25 -25 -26 -26 -26 -26 -27 -27 -27 -27 -27 -27 -27 -27
-24 -24 -23 -23 -23 -22 -23 -23 -22 -22 -22 -22 -22 -22 -23 -23 -23 -23 -23 -23 -24 -24 -24 -24 -24 -25 -25 -25 -25 -25 -26 -26 -26 -27 -27 -27 -27 -27 -28 -28 -28 -29 -29 -29
Height
5763 5767 5771 5773 5774 5776 5777 5780 5783 5784 5785 5790 5790 5794 5796 5796 5797 5796 5795 5797 5797 5797 5795 5792 5791 5790 5787 5786 5787 5788 5787 5786 5785 5784 5784 5784 5784 5784 5785 5783 5782 5778 5778 5776
5751 5757 5763 5763 5764 5766 5768 5768 5772 5773 5775 5775 5780 5788 5787 5787 5788 5786 5785 5784 5785 5785 5784 5782 5779 5776 5776 5777 5777 5778 5777 5775 5774 5773 5773 5773 5775 5776 5776 5775 5773 5770 5768 5768
5741 5749 5751 5753 5756 5757 5759 5760 5762 5763 5762 5765 5767 5777 5781 5780 5780 5776 5774 5771 5773 5772 5773 5770 5767 5766 5765 5765 5766 5766 5765 5765 5764 5763 5762 5762 5762 5765 5765 5764 5763 5760 5759 5758
5730 5737 5742 5746 5747 5747 5749 5751 5749 5749 5748 5753 5757 5760 5772 5772 5771 5766 5762 5759 5760 5760 5757 5755 5754 5755 5754 5754 5754 5755 5754 5753 5753 5752 5751 5750 5750 5751 5752 5751 5752 5751 5748 5747
5725 5728 5729 5733 5737 5736 5738 5739 5737 5735 5738 5741 5748 5747 5766 5761 5761 5755 5749 5747 5747 5746 5743 5743 5743 5742 5743 5742 5743 5743 5742 5742 5741 5741 5741 5740 5740 5740 5740 5739 5738 5739 5738 5736
5712 5715 5719 5723 5726 5727 5726 5726 5725 5725 5727 5731 5736 5738 5756 5748 5744 5743 5736 5732 5735 5735 5732 5732 5732 5731 5731 5732 5731 5731 5730 5729 5729 5729 5729 5729 5729 5729 5729 5728 5727 5727 5727 5726
5700 5705 5708 5711 5713 5714 5715 5717 5715 5713 5715 5720 5723 5724 5740 5737 5733 5731 5726 5720 5722 5722 5721 5721 5722 5723 5721 5721 5720 5720 5719 5719 5718 5718 5718 5718 5718 5717 5716 5716 5716 5715 5715 5715
5686 5693 5697 5702 5702 5704 5703 5704 5703 5702 5704 5708 5710 5712 5725 5724 5723 5720 5713 5707 5707 5712 5713 5713 5712 5712 5712 5711 5710 5710 5709 5708 5708 5708 5708 5707 5707 5705 5704 5703 5703 5703 5703 5704
5674 5678 5684 5690 5691 5693 5693 5693 5697 5690 5691 5690 5699 5705 5709 5710 5707 5705 5704 5699 5700 5701 5702 5703 5703 5703 5703 5701 5700 5700 5699 5699 5698 5697 5697 5697 5696 5695 5693 5692 5691 5691 5690 5690
5665 5666 5671 5675 5679 5680 5681 5685 5682 5680 5680 5679 5684 5690 5693 5694 5693 5696 5695 5693 5691 5692 5692 5693 5693 5692 5692 5690 5689 5689 5689 5688 5687 5686 5686 5685 5683 5683 5681 5680 5679 5678 5677 5676
5652 5653 5659 5661 5666 5669 5671 5673 5671 5671 5670 5667 5670 5676 5682 5680 5683 5686 5686 5685 5683 5681 5680 5681 5682 5682 5682 5680 5679 5678 5677 5676 5676 5675 5673 5672 5671 5670 5670 5668 5667 5666 5665 5664
5642 5639 5639 5648 5650 5653 5655 5659 5658 5655 5658 5660 5660 5664 5668 5671 5674 5675 5676 5677 5675 5672 5671 5671 5670 5669 5670 5670 5670 5668 5667 5667 5666 5665 5663 5661 5660 5659 5658 5657 5656 5656 5654 5652
5629 5625 5627 5633 5637 5638 5641 5646 5647 5648 5648 5651 5647 5655 5659 5662 5664 5664 5663 5664 5665 5664 5664 5664 5663 5663 5663 5662 5662 5661 5660 5658 5656 5655 5653 5651 5650 5649 5647 5646 5645 5644 5642 5640
5613 5611 5613 5619 5629 5628 5630 5633 5635 5637 5635 5638 5638 5646 5650 5649 5651 5653 5654 5654 5653 5654 5653 5654 5654 5654 5653 5652 5652 5651 5650 5648 5647 5645 5643 5642 5640 5638 5636 5634 5633 5632 5629 5627
5599 5599 5603 5611 5615 5614 5615 5618 5622 5622 5627 5623 5635 5633 5641 5640 5640 5642 5643 5643 5643 5643 5643 5643 5643 5643 5642 5641 5640 5640 5639 5637 5635 5634 5633 5631 5629 5627 5625 5623 5621 5619 5616 5614
5589 5590 5592 5596 5600 5602 5601 5606 5611 5610 5616 5615 5620 5624 5631 5633 5631 5632 5633 5632 5632 5633 5634 5633 5633 5633 5632 5630 5629 5628 5627 5626 5624 5621 5619 5619 5617 5615 5612 5610 5607 5605 5602 5600
5578 5580 5582 5582 5589 5587 5586 5597 5600 5602 5604 5609 5610 5621 5618 5619 5621 5623 5624 5625 5625 5625 5625 5625 5624 5623 5620 5617 5616 5616 5615 5614 5611 5610 5608 5606 5603 5600 5597 5594 5591 5588 5586 5583
5563 5566 5569 5570 5576 5572 5580 5586 5591 5591 5594 5598 5602 5609 5608 5609 5609 5612 5613 5614 5615 5616 5616 5615 5613 5612 5610 5608 5607 5605 5603 5601 5598 5595 5594 5591 5588 5583 5580 5577 5574 5572 5568 5564
5552 5556 5557 5557 5560 5562 5571 5578 5582 5583 5588 5590 5592 5596 5597 5599 5599 5600 5603 5603 5603 5603 5603 5602 5602 5600 5599 5597 5595 5592 5590 5587 5584 5582 5579 5577 5573 5569 5565 5561 5556 5552 5549 5546
5542 5546 5547 5551 5550 5551 5568 5573 5576 5576 5575 5585 5586 5587 5588 5588 5589 5594 5591 5592 5591 5591 5592 5590 5589 5587 5586 5584 5582 5580 5577 5574 5571 5568 5564 5559 5555 5552 5549 5545 5541 5536 5532 5528
5533 5535 5536 5541 5541 5545 5557 5563 5565 5564 5577 5575 5576 5577 5577 5579 5581 5580 5580 5580 5581 5580 5580 5579 5578 5576 5574 5572 5569 5567 5564 5561 5558 5554 5549 5545 5541 5537 5532 5526 5521 5516 5511 5505
5528 5530 5534 5532 5533 5536 5547 5551 5557 5562 5560 5562 5564 5566 5568 5569 5570 5570 5570 5571 5571 5570 5569 5567 5566 5564 5562 5559 5557 5553 5549 5546 5542 5538 5534 5528 5522 5517 5510 5504 5496 5488 5482 5478
5519 5523 5523 5523 5526 5535 5539 5542 5548 5550 5551 5553 5552 5556 5559 5560 5561 5561 5561 5560 5560 5559 5557 5556 5555 5553 5550 5547 5544 5540 5537 5533 5529 5524 5518 5511 5503 5494 5486 5480 5473 5466 5458 5451
5513 5516 5516 5517 5521 5526 5531 5533 5537 5540 5540 5544 5546 5548 5550 5552 5552 5552 5551 5550 5550 5549 5547 5546 5544 5541 5538 5535 5531 5527 5522 5518 5512 5506 5499 5491 5484 5474 5465 5457 5448 5440 5431 5422
5507 5507 5506 5512 5511 5520 5525 5527 5529 5532 5534 5537 5540 5542 5544 5544 5544 5542 5541 5541 5540 5539 5537 5535 5532 5529 5525 5521 5517 5512 5506 5500 5494 5487 5480 5473 5464 5455 5444 5431 5422 5411 5399 5389
5501 5502 5504 5507 5509 5514 5518 5520 5523 5526 5529 5531 5533 5535 5535 5534 5534 5533 5532 5531 5530 5528 5526 5523 5520 5516 5512 5507 5502 5497 5491 5484 5477 5469 5460 5452 5444 5434 5424 5414 5399 5381 5372 5363
Wind_Speed
54 56 55 52 52 52 53 52 50 50 51 47 48 46 45 45 44 46 46 44 45 43 45 47 47 48 50 49 46 44 45 45 47 46 46 46 44 46 42 42 47 49 47 47
55 56 53 53 53 51 51 52 52 52 51 53 50 46 47 47 47 50 49 48 47 47 47 47 50 52 52 50 49 45 45 46 48 49 49 49 47 45 45 43 47 50 53 53
57 54 51 52 51 52 51 52 53 54 54 52 52 50 48 49 49 49 50 51 51 51 51 51 52 53 54 53 50 48 48 47 48 50 49 47 46 45 45 46 47 50 52 54
62 55 52 51 51 51 53 53 55 56 58 56 55 61 53 48 48 50 50 53 53 54 55 55 53 50 52 54 51 48 48 48 47 50 50 45 43 43 45 48 47 50 51 54
59 57 56 55 52 53 55 55 57 60 58 57 55 58 50 50 49 50 51 53 55 57 55 53 50 48 47 49 49 49 49 49 49 47 48 46 44 43 44 50 52 49 50 48
59 64 59 58 55 55 57 57 57 57 56 58 57 58 48 51 53 52 53 55 54 50 49 47 46 47 45 46 49 50 49 48 48 48 48 49 48 47 46 46 49 49 49 48
52 53 52 52 55 55 55 53 55 57 59 59 56 57 51 53 54 52 56 59 53 50 44 42 41 42 42 43 44 46 46 45 45 46 48 47 50 48 48 48 48 50 50 48
53 55 53 52 51 50 50 52 54 57 56 57 58 61 55 54 52 52 58 59 55 45 42 41 39 38 38 40 42 40 41 40 39 39 39 38 41 44 47 48 48 50 50 49
51 53 52 51 50 50 52 53 49 51 55 59 60 58 55 52 53 53 53 53 51 46 35 28 33 38 41 41 43 43 39 40 42 43 43 43 42 41 43 47 48 51 52 53
51 53 53 54 54 55 56 53 54 54 56 57 59 57 56 52 51 45 42 41 41 42 39 39 40 41 43 46 48 48 48 49 50 49 47 43 43 43 46 48 49 50 51 52
51 54 54 54 55 56 56 55 56 54 54 55 56 59 56 53 44 39 35 37 41 44 47 46 42 40 40 43 48 49 51 49 43 42 43 43 43 44 46 49 49 48 47 48
49 51 56 54 55 55 57 55 56 58 55 53 55 60 56 50 46 44 42 39 38 41 32 32 30 29 27 30 37 41 41 37 37 37 38 40 43 42 42 42 44 45 45 44
49 51 52 57 60 61 61 59 58 55 47 55 55 57 50 44 42 38 39 38 39 40 43 38 35 32 26 27 31 34 37 39 40 40 40 39 41 41 40 41 43 44 43 43
52 52 58 60 57 57 58 56 53 49 52 55 53 46 44 43 42 41 37 39 41 41 40 39 41 42 48 44 40 41 40 38 41 42 44 45 46 46 46 45 46 47 46 47
49 47 54 58 56 57 60 59 56 56 49 45 47 46 38 38 41 41 41 39 40 38 37 36 36 40 42 45 48 48 44 46 47 53 49 47 46 46 45 47 49 50 50 51
43 53 45 43 48 42 51 53 58 55 53 52 48 44 38 38 34 35 35 33 33 34 37 38 42 41 37 47 48 42 46 50 54 53 51 51 49 49 52 54 56 57 58 61
38 41 45 53 50 52 54 50 48 48 48 49 49 43 40 46 47 42 38 39 38 37 39 38 39 34 36 45 49 50 55 53 58 52 54 56 56 57 59 57 59 59 58 60
52 47 51 52 46 49 33 34 45 48 43 41 40 38 39 39 46 46 46 45 40 37 38 39 39 42 45 49 53 57 57 55 56 53 52 54 57 58 56 56 57 57 55 56
44 53 52 55 57 57 46 26 31 40 37 42 41 37 41 38 37 39 37 38 38 41 44 45 43 44 47 50 53 54 55 56 53 52 51 50 52 54 56 57 56 56 59 60
47 49 53 52 54 53 52 52 43 42 43 35 35 35 38 36 41 37 41 44 46 44 41 46 47 46 45 46 48 50 49 49 49 52 53 55 55 54 55 59 60 64 68 70
47 47 51 51 55 48 36 43 46 47 40 37 36 33 36 42 40 42 45 43 41 41 44 44 42 42 43 44 44 45 47 49 50 52 53 54 57 61 65 68 72 76 79 80
38 40 39 43 56 56 39 45 42 36 33 32 35 32 33 35 37 36 38 39 39 40 39 40 41 41 41 43 45 46 48 50 51 54 59 62 66 71 76 80 84 86 88 90
39 44 36 41 45 49 45 40 38 37 39 28 27 33 37 37 36 36 37 38 37 37 38 39 40 41 43 44 47 49 51 54 57 61 65 69 74 78 82 85 88 90 94 98
40 35 27 26 38 38 38 30 36 26 33 33 29 34 37 38 38 37 34 33 35 36 38 39 41 43 45 47 50 53 56 60 62 66 71 75 78 82 86 90 94 98 100 100
27 31 23 26 26 29 24 20 21 23 26 29 31 34 37 34 34 33 34 35 36 38 40 41 44 47 49 53 56 59 62 66 69 73 76 79 83 87 92 97 100 100 101 101
21 18 19 22 22 25 21 25 28 30 31 31 31 33 34 32 33 34 35 37 38 40 43 46 49 51 54 58 61 64 67 71 75 78 81 85 88 92 94 94 96 100 99 94
Wind_Direction
256 256 258 260 261 261 263 264 264 264 266 267 268 266 268 270 273 277 278 282 283 285 284 283 281 281 282 278 273 273 274 272 272 271 272 270 271 274 277 278 279 284 290 280
254 256 258 259 261 262 263 264 265 265 267 267 265 266 269 273 274 278 280 280 281 281 279 278 277 279 279 276 273 271 271 271 270 271 273 274 273 273 275 274 275 277 282 289
254 255 257 258 259 262 264 266 268 270 269 271 270 266 268 272 279 279 279 280 281 281 281 277 276 280 278 272 268 268 269 268 267 271 274 275 273 272 274 274 271 275 272 277
254 257 258 259 263 265 266 269 270 270 269 269 269 271 274 277 276 281 283 283 282 282 281 281 280 273 268 267 267 267 267 267 267 267 271 272 270 267 266 270 272 272 278 272
252 251 253 255 258 262 266 267 267 267 269 271 275 276 271 276 278 281 283 279 281 281 280 279 277 272 265 263 263 264 266 267 268 267 268 273 273 272 267 266 269 271 271 274
254 252 253 257 260 263 265 266 269 272 274 273 274 276 269 276 279 282 283 282 282 280 278 275 271 270 268 265 264 264 265 266 268 271 271 272 273 271 270 268 269 269 270 271
255 255 257 257 258 261 265 270 274 274 275 276 276 275 273 276 280 282 280 280 279 279 276 274 272 268 268 267 266 264 266 268 272 275 274 274 273 271 267 267 267 269 268 270
253 254 257 259 261 265 266 266 267 271 275 276 274 274 277 278 280 278 277 278 280 277 277 275 272 267 267 267 267 269 270 272 273 273 272 272 269 266 266 266 267 267 269 269
258 258 260 261 264 265 268 267 272 273 271 271 273 277 279 279 277 275 273 275 277 279 276 266 268 271 270 271 272 270 271 275 276 274 273 275 276 272 269 268 267 265 266 267
263 262 260 261 260 260 264 265 264 265 269 274 276 276 277 277 274 275 276 276 279 274 266 272 278 280 275 273 276 275 276 279 280 278 276 277 274 271 267 266 266 266 266 268
257 258 259 259 258 262 264 265 267 269 267 269 272 272 273 272 276 276 270 271 270 270 274 282 280 280 277 277 274 274 276 276 279 275 274 274 272 269 267 267 269 270 269 269
259 259 257 257 259 259 261 262 262 262 262 267 270 270 271 274 275 277 276 270 269 273 278 288 287 283 273 274 271 273 279 278 274 275 277 275 272 274 275 274 272 272 272 272
255 255 258 256 256 256 258 260 262 264 262 265 265 270 274 274 272 269 272 271 267 264 273 276 281 277 261 274 275 275 274 272 273 276 274 273 273 275 275 277 279 278 279 281
253 252 255 258 261 261 258 258 261 262 261 261 263 269 268 273 270 268 273 270 266 266 272 273 268 270 279 286 280 275 276 278 276 279 273 270 273 275 276 276 277 279 282 281
250 251 256 258 258 258 260 260 259 260 263 258 260 262 260 264 270 270 273 272 268 269 272 270 274 273 273 273 278 281 279 282 278 278 279 280 277 279 281 280 283 286 286 283
248 251 248 247 252 260 261 259 260 256 252 255 254 255 262 264 258 265 268 273 276 273 273 273 278 277 273 271 267 283 281 272 276 272 272 274 278 282 286 284 283 286 286 288
224 233 242 247 242 241 250 260 261 263 259 258 260 267 264 258 257 266 274 269 270 274 271 272 267 275 276 260 279 280 272 266 281 282 277 277 278 282 287 288 287 287 287 286
225 229 233 243 237 242 249 250 254 256 255 255 254 260 270 259 258 263 272 268 268 270 268 270 268 268 271 270 273 280 284 286 287 289 286 284 284 284 285 284 284 285 287 288
229 231 239 241 239 235 234 232 246 260 255 259 257 254 259 255 255 258 263 267 271 275 276 278 277 274 272 274 277 280 282 284 286 287 286 282 281 282 283 285 287 288 290 290
227 232 235 244 245 244 238 241 251 257 255 255 253 262 252 253 255 258 268 269 271 276 279 278 278 280 280 279 279 281 284 285 285 285 285 287 287 287 286 285 285 288 290 290
229 236 236 240 243 245 249 243 249 250 258 255 259 264 256 261 260 258 262 267 271 273 273 276 278 279 281 282 282 282 282 283 283 284 285 286 287 289 290 292 291 289 289 290
237 242 250 252 240 242 243 245 246 263 248 254 249 259 262 262 262 264 267 270 273 274 276 277 277 277 278 279 282 284 286 287 288 289 290 292 295 295 295 295 296 296 296 295
230 227 260 251 239 234 243 248 241 261 256 254 270 261 259 260 266 270 273 273 272 272 272 274 276 278 280 283 285 286 286 287 287 289 292 293 295 297 298 298 298 298 297 297
239 239 248 241 242 234 241 238 240 255 243 255 250 257 262 267 271 270 269 268 269 272 273 275 278 281 282 283 283 284 285 287 290 293 295 297 298 298 298 299 299 300 301 301
238 243 251 246 209 216 231 235 230 235 241 247 252 261 265 267 267 269 270 272 274 276 279 280 282 283 284 286 287 290 292 293 294 295 297 298 298 298 300 302 302 302 302 301
244 254 232 233 231 226 231 233 230 235 244 251 261 266 267 269 270 272 275 277 278 280 282 284 286 286 288 291 292 292 293 293 295 296 297 298 300 301 302 303 304 305 304 305